Time,TemperatureF,DewpointF,PressureIn,WindDirection,WindDirectionDegrees,WindSpeedMPH,WindSpeedGustMPH,Humidity,HourlyPrecipIn,Conditions,Clouds,dailyrainin,SolarRadiationWatts/m^2,SoftwareType,DateUTC
2013-10-22 00:01:00,32.6,23.2,30.49,SSE,167,2.0,2.0,68,0.00,,,0.00,0,LWC V2.00 B727,2013-10-22 06:01:00,
2013-10-22 00:06:00,32.5,23.1,30.49,SSE,167,1.0,3.0,68,0.00,,,0.00,0,LWC V2.00 B727,2013-10-22 06:06:00,
2013-10-22 00:11:00,32.5,23.5,30.49,SSE,167,2.0,4.0,69,0.00,,,0.00,0,LWC V2.00 B727,2013-10-22 06:11:00,
2013-10-22 00:16:00,32.6,23.6,30.49,SSE,167,1.0,4.0,69,0.00,,,0.00,0,LWC V2.00 B727,2013-10-22 06:16:00,
2013-10-22 00:21:00,32.7,23.7,30.49,SSE,167,2.0,4.0,69,0.00,,,0.00,0,LWC V2.00 B727,2013-10-22 06:21:00,
2013-10-22 00:26:00,32.7,23.7,30.49,SSE,167,2.0,2.0,69,0.00,,,0.00,0,LWC V2.00 B727,2013-10-22 06:26:00,
2013-10-22 00:31:00,32.8,23.8,30.49,SSE,167,1.0,3.0,69,0.00,,,0.00,0,LWC V2.00 B727,2013-10-22 06:31:00,
2013-10-22 00:36:00,32.7,23.7,30.49,SSE,167,0.0,1.0,69,0.00,,,0.00,0,LWC V2.00 B727,2013-10-22 06:36:00,
2013-10-22 00:41:00,32.6,23.6,30.49,SSE,167,2.0,2.0,69,0.00,,,0.00,0,LWC V2.00 B727,2013-10-22 06:41:00,
2013-10-22 00:46:00,32.5,23.5,30.49,SSE,167,4.0,4.0,69,0.00,,,0.00,0,LWC V2.00 B727,2013-10-22 06:46:00,
2013-10-22 00:51:00,32.4,23.7,30.49,SSE,167,2.0,4.0,70,0.00,,,0.00,0,LWC V2.00 B727,2013-10-22 06:51:00,
2013-10-22 00:56:00,32.5,23.5,30.49,SSE,165,2.0,3.0,69,0.00,,,0.00,0,LWC V2.00 B727,2013-10-22 06:56:00,
2013-10-22 01:01:00,32.6,23.6,30.49,SSE,163,2.0,3.0,69,0.00,,,0.00,0,LWC V2.00 B727,2013-10-22 07:01:00,
2013-10-22 01:06:00,32.8,23.4,30.49,SSE,155,1.0,2.0,68,0.00,,,0.00,0,LWC V2.00 B727,2013-10-22 07:06:00,
2013-10-22 01:11:00,32.9,23.5,30.49,SSE,155,2.0,4.0,68,0.00,,,0.00,0,LWC V2.00 B727,2013-10-22 07:11:00,
2013-10-22 01:16:00,33.0,23.6,30.50,East,98,3.0,5.0,68,0.00,,,0.00,0,LWC V2.00 B727,2013-10-22 07:16:00,
2013-10-22 01:21:00,32.9,22.8,30.50,ESE,103,4.0,5.0,66,0.00,,,0.00,0,LWC V2.00 B727,2013-10-22 07:21:00,
2013-10-22 01:26:00,32.9,22.8,30.50,SE,132,0.0,4.0,66,0.00,,,0.00,0,LWC V2.00 B727,2013-10-22 07:26:00,
2013-10-22 01:31:00,32.9,23.2,30.50,SE,136,2.0,4.0,67,0.00,,,0.00,0,LWC V2.00 B727,2013-10-22 07:31:00,
2013-10-22 01:36:00,33.0,22.5,30.50,SE,137,2.0,5.0,65,0.00,,,0.00,0,LWC V2.00 B727,2013-10-22 07:36:00,
2013-10-22 01:41:00,33.2,22.4,30.50,SE,137,2.0,4.0,64,0.00,,,0.00,0,LWC V2.00 B727,2013-10-22 07:41:00,
2013-10-22 01:46:00,33.3,22.5,30.50,SE,137,2.0,3.0,64,0.00,,,0.00,0,LWC V2.00 B727,2013-10-22 07:46:00,
2013-10-22 01:51:00,33.3,22.1,30.51,SE,137,0.0,0.0,63,0.00,,,0.00,0,LWC V2.00 B727,2013-10-22 07:51:00,
2013-10-22 01:56:00,33.2,22.0,30.51,SE,137,2.0,3.0,63,0.00,,,0.00,0,LWC V2.00 B727,2013-10-22 07:56:00,
2013-10-22 02:01:00,33.2,22.4,30.51,SE,137,3.0,4.0,64,0.00,,,0.00,0,LWC V2.00 B727,2013-10-22 08:01:00,
2013-10-22 02:06:00,33.0,22.2,30.51,SE,137,5.0,6.0,64,0.00,,,0.00,0,LWC V2.00 B727,2013-10-22 08:06:00,
2013-10-22 02:11:00,33.0,22.2,30.51,SE,138,2.0,5.0,64,0.00,,,0.00,0,LWC V2.00 B727,2013-10-22 08:11:00,
2013-10-22 02:16:00,32.9,21.7,30.52,SE,138,4.0,4.0,63,0.00,,,0.00,0,LWC V2.00 B727,2013-10-22 08:16:00,
2013-10-22 02:21:00,32.8,22.0,30.52,SE,137,3.0,4.0,64,0.00,,,0.00,0,LWC V2.00 B727,2013-10-22 08:21:00,
2013-10-22 02:26:00,32.7,21.5,30.52,SE,136,2.0,3.0,63,0.00,,,0.00,0,LWC V2.00 B727,2013-10-22 08:26:00,
2013-10-22 02:31:00,32.6,21.4,30.52,SE,136,3.0,6.0,63,0.00,,,0.00,0,LWC V2.00 B727,2013-10-22 08:31:00,
2013-10-22 02:36:00,32.5,21.3,30.52,SE,136,4.0,4.0,63,0.00,,,0.00,0,LWC V2.00 B727,2013-10-22 08:36:00,
2013-10-22 02:41:00,32.5,21.3,30.52,SE,136,2.0,5.0,63,0.00,,,0.00,0,LWC V2.00 B727,2013-10-22 08:41:00,
2013-10-22 02:46:00,32.4,21.2,30.52,SE,125,2.0,4.0,63,0.00,,,0.00,0,LWC V2.00 B727,2013-10-22 08:46:00,
2013-10-22 02:51:00,32.4,21.2,30.52,SE,125,2.0,4.0,63,0.00,,,0.00,0,LWC V2.00 B727,2013-10-22 08:51:00,
2013-10-22 02:56:00,32.3,21.1,30.52,SE,128,3.0,5.0,63,0.00,,,0.00,0,LWC V2.00 B727,2013-10-22 08:56:00,
2013-10-22 03:01:00,32.2,21.4,30.52,ESE,115,2.0,4.0,64,0.00,,,0.00,0,LWC V2.00 B727,2013-10-22 09:01:00,
2013-10-22 03:06:00,32.2,21.0,30.52,ESE,119,4.0,4.0,63,0.00,,,0.00,0,LWC V2.00 B727,2013-10-22 09:06:00,
2013-10-22 03:11:00,32.2,21.0,30.52,ESE,119,4.0,5.0,63,0.00,,,0.00,0,LWC V2.00 B727,2013-10-22 09:11:00,
2013-10-22 03:16:00,32.2,21.0,30.52,ESE,119,2.0,4.0,63,0.00,,,0.00,0,LWC V2.00 B727,2013-10-22 09:16:00,
2013-10-22 03:21:00,32.1,20.9,30.52,ESE,119,3.0,4.0,63,0.00,,,0.00,0,LWC V2.00 B727,2013-10-22 09:21:00,
2013-10-22 03:26:00,32.0,20.9,30.52,ESE,123,2.0,5.0,63,0.00,,,0.00,0,LWC V2.00 B727,2013-10-22 09:26:00,
2013-10-22 03:31:00,32.0,20.9,30.52,SE,129,6.0,6.0,63,0.00,,,0.00,0,LWC V2.00 B727,2013-10-22 09:31:00,
2013-10-22 03:36:00,32.1,20.9,30.52,SE,140,6.0,7.0,63,0.00,,,0.00,0,LWC V2.00 B727,2013-10-22 09:36:00,
2013-10-22 03:41:00,32.3,21.1,30.52,SE,144,5.0,8.0,63,0.00,,,0.00,0,LWC V2.00 B727,2013-10-22 09:41:00,
2013-10-22 03:46:00,32.3,21.1,30.52,SE,142,5.0,8.0,63,0.00,,,0.00,0,LWC V2.00 B727,2013-10-22 09:46:00,
2013-10-22 03:51:00,32.3,21.1,30.52,SSE,147,3.0,6.0,63,0.00,,,0.00,0,LWC V2.00 B727,2013-10-22 09:51:00,
2013-10-22 03:56:00,32.3,21.1,30.52,SE,139,4.0,5.0,63,0.00,,,0.00,0,LWC V2.00 B727,2013-10-22 09:56:00,
2013-10-22 04:01:00,32.2,21.4,30.52,SE,132,1.0,2.0,64,0.00,,,0.00,0,LWC V2.00 B727,2013-10-22 10:01:00,
2013-10-22 04:06:00,32.0,20.9,30.52,SE,132,1.0,4.0,63,0.00,,,0.00,0,LWC V2.00 B727,2013-10-22 10:06:00,
2013-10-22 04:11:00,31.8,21.0,30.52,SE,131,2.0,2.0,64,0.00,,,0.00,0,LWC V2.00 B727,2013-10-22 10:11:00,
2013-10-22 04:16:00,31.6,20.8,30.52,SE,132,3.0,6.0,64,0.00,,,0.00,0,LWC V2.00 B727,2013-10-22 10:16:00,
2013-10-22 04:21:00,31.7,21.3,30.52,SE,133,5.0,6.0,65,0.00,,,0.00,0,LWC V2.00 B727,2013-10-22 10:21:00,
2013-10-22 04:26:00,31.8,21.4,30.52,SE,134,5.0,6.0,65,0.00,,,0.00,0,LWC V2.00 B727,2013-10-22 10:26:00,
2013-10-22 04:31:00,32.0,21.2,30.52,SE,137,5.0,8.0,64,0.00,,,0.00,0,LWC V2.00 B727,2013-10-22 10:31:00,
2013-10-22 04:36:00,32.1,21.3,30.52,SE,140,5.0,7.0,64,0.00,,,0.00,0,LWC V2.00 B727,2013-10-22 10:36:00,
2013-10-22 04:41:00,32.3,21.1,30.52,SE,140,4.0,7.0,63,0.00,,,0.00,0,LWC V2.00 B727,2013-10-22 10:41:00,
2013-10-22 04:46:00,32.3,21.1,30.52,SE,141,4.0,5.0,63,0.00,,,0.00,0,LWC V2.00 B727,2013-10-22 10:46:00,
2013-10-22 04:51:00,32.3,21.1,30.52,SE,143,5.0,6.0,63,0.00,,,0.00,0,LWC V2.00 B727,2013-10-22 10:51:00,
2013-10-22 04:56:00,32.3,21.1,30.53,SE,144,3.0,6.0,63,0.00,,,0.00,0,LWC V2.00 B727,2013-10-22 10:56:00,
2013-10-22 05:01:00,32.3,21.1,30.53,SE,145,4.0,5.0,63,0.00,,,0.00,0,LWC V2.00 B727,2013-10-22 11:01:00,
2013-10-22 05:06:00,32.3,21.1,30.53,SE,144,6.0,6.0,63,0.00,,,0.00,0,LWC V2.00 B727,2013-10-22 11:06:00,
2013-10-22 05:11:00,32.3,21.1,30.53,SE,142,3.0,6.0,63,0.00,,,0.00,0,LWC V2.00 B727,2013-10-22 11:11:00,
2013-10-22 05:17:00,32.2,21.0,30.53,SE,144,5.0,8.0,63,0.00,,,0.00,0,LWC V2.00 B727,2013-10-22 11:17:00,
2013-10-22 05:22:00,32.2,21.0,30.53,SE,144,5.0,7.0,63,0.00,,,0.00,0,LWC V2.00 B727,2013-10-22 11:22:00,
2013-10-22 05:27:00,32.3,21.1,30.54,SE,142,7.0,7.0,63,0.00,,,0.00,0,LWC V2.00 B727,2013-10-22 11:27:00,
2013-10-22 05:32:00,32.3,20.8,30.54,SE,134,3.0,6.0,62,0.00,,,0.00,0,LWC V2.00 B727,2013-10-22 11:32:00,
2013-10-22 05:37:00,32.5,20.6,30.54,SE,136,6.0,7.0,61,0.00,,,0.00,0,LWC V2.00 B727,2013-10-22 11:37:00,
2013-10-22 05:42:00,32.6,21.0,30.54,SE,136,6.0,8.0,62,0.00,,,0.00,0,LWC V2.00 B727,2013-10-22 11:42:00,
2013-10-22 05:47:00,32.5,20.9,30.54,SE,132,5.0,7.0,62,0.00,,,0.00,0,LWC V2.00 B727,2013-10-22 11:47:00,
2013-10-22 05:52:00,32.5,20.6,30.54,SE,138,5.0,7.0,61,0.00,,,0.00,0,LWC V2.00 B727,2013-10-22 11:52:00,
2013-10-22 05:57:00,32.6,20.7,30.54,SE,125,5.0,7.0,61,0.00,,,0.00,0,LWC V2.00 B727,2013-10-22 11:57:00,
2013-10-22 06:02:00,32.7,20.4,30.54,SE,136,8.0,10.0,60,0.00,,,0.00,0,LWC V2.00 B727,2013-10-22 12:02:00,
2013-10-22 06:07:00,32.9,20.2,30.55,SE,136,4.0,8.0,59,0.00,,,0.00,0,LWC V2.00 B727,2013-10-22 12:07:00,
2013-10-22 06:12:00,33.0,20.7,30.55,SE,126,2.0,5.0,60,0.00,,,0.00,0,LWC V2.00 B727,2013-10-22 12:12:00,
2013-10-22 06:17:00,32.9,20.9,30.55,SE,134,2.0,5.0,61,0.00,,,0.00,0,LWC V2.00 B727,2013-10-22 12:17:00,
2013-10-22 06:21:00,32.6,20.7,30.55,ESE,114,1.0,4.0,61,0.00,,,0.00,0,LWC V2.00 B727,2013-10-22 12:21:00,
2013-10-22 06:27:00,32.3,20.4,30.55,ESE,109,3.0,4.0,61,0.00,,,0.00,0,LWC V2.00 B727,2013-10-22 12:27:00,
2013-10-22 06:32:00,32.0,20.5,30.55,East,98,2.0,5.0,62,0.00,,,0.00,0,LWC V2.00 B727,2013-10-22 12:32:00,
2013-10-22 06:37:00,31.7,20.2,30.55,ESE,107,3.0,3.0,62,0.00,,,0.00,0,LWC V2.00 B727,2013-10-22 12:37:00,
2013-10-22 06:42:00,31.5,20.4,30.55,ESE,109,2.0,4.0,63,0.00,,,0.00,0,LWC V2.00 B727,2013-10-22 12:42:00,
2013-10-22 06:47:00,31.3,20.6,30.55,ESE,109,3.0,4.0,64,0.00,,,0.00,0,LWC V2.00 B727,2013-10-22 12:47:00,
2013-10-22 06:52:00,31.1,20.0,30.55,ESE,106,1.0,2.0,63,0.00,,,0.00,0,LWC V2.00 B727,2013-10-22 12:52:00,
2013-10-22 06:57:00,31.0,19.9,30.55,ESE,109,1.0,4.0,63,0.00,,,0.00,0,LWC V2.00 B727,2013-10-22 12:57:00,
2013-10-22 07:02:00,31.0,19.9,30.55,ESE,109,3.0,3.0,63,0.00,,,0.00,0,LWC V2.00 B727,2013-10-22 13:02:00,
2013-10-22 07:07:00,31.0,19.9,30.55,ESE,115,3.0,3.0,63,0.00,,,0.00,0,LWC V2.00 B727,2013-10-22 13:07:00,
2013-10-22 07:12:00,31.0,19.9,30.55,ESE,109,3.0,3.0,63,0.00,,,0.00,0,LWC V2.00 B727,2013-10-22 13:12:00,
2013-10-22 07:17:00,31.0,19.9,30.55,ESE,111,2.0,3.0,63,0.00,,,0.00,5,LWC V2.00 B727,2013-10-22 13:17:00,
2013-10-22 07:22:00,31.2,20.1,30.55,ESE,114,1.0,5.0,63,0.00,,,0.00,5,LWC V2.00 B727,2013-10-22 13:22:00,
2013-10-22 07:27:00,31.3,20.2,30.55,ESE,117,2.0,4.0,63,0.00,,,0.00,7,LWC V2.00 B727,2013-10-22 13:27:00,
2013-10-22 07:32:00,31.4,20.3,30.55,ESE,118,3.0,4.0,63,0.00,,,0.00,9,LWC V2.00 B727,2013-10-22 13:32:00,
2013-10-22 07:37:00,31.5,20.0,30.55,ESE,121,2.0,4.0,62,0.00,,,0.00,11,LWC V2.00 B727,2013-10-22 13:37:00,
2013-10-22 07:42:00,31.7,19.8,30.55,ESE,118,2.0,2.0,61,0.00,,,0.00,28,LWC V2.00 B727,2013-10-22 13:42:00,
2013-10-22 07:47:00,32.0,20.1,30.55,ESE,119,1.0,3.0,61,0.00,,,0.00,42,LWC V2.00 B727,2013-10-22 13:47:00,
2013-10-22 07:52:00,32.5,20.6,30.56,ESE,119,0.0,3.0,61,0.00,,,0.00,58,LWC V2.00 B727,2013-10-22 13:52:00,
2013-10-22 07:57:00,33.0,20.3,30.56,ESE,119,2.0,5.0,59,0.00,,,0.00,76,LWC V2.00 B727,2013-10-22 13:57:00,
2013-10-22 08:02:00,33.7,20.9,30.56,ESE,119,2.0,3.0,59,0.00,,,0.00,97,LWC V2.00 B727,2013-10-22 14:02:00,
2013-10-22 08:07:00,34.4,21.2,30.56,ESE,120,0.0,4.0,58,0.00,,,0.00,114,LWC V2.00 B727,2013-10-22 14:07:00,
2013-10-22 08:12:00,35.0,20.9,30.57,ESE,118,2.0,3.0,56,0.00,,,0.00,135,LWC V2.00 B727,2013-10-22 14:12:00,
2013-10-22 08:17:00,36.1,21.9,30.57,ESE,114,1.0,2.0,56,0.00,,,0.00,158,LWC V2.00 B727,2013-10-22 14:17:00,
2013-10-22 08:22:00,36.9,22.3,30.57,ESE,114,1.0,3.0,55,0.00,,,0.00,181,LWC V2.00 B727,2013-10-22 14:22:00,
2013-10-22 08:27:00,37.9,22.8,30.57,ESE,114,0.0,4.0,54,0.00,,,0.00,204,LWC V2.00 B727,2013-10-22 14:27:00,
2013-10-22 08:32:00,38.8,22.7,30.57,ESE,105,4.0,4.0,52,0.00,,,0.00,227,LWC V2.00 B727,2013-10-22 14:32:00,
2013-10-22 08:37:00,39.8,23.2,30.57,ESE,106,3.0,3.0,51,0.00,,,0.00,248,LWC V2.00 B727,2013-10-22 14:37:00,
2013-10-22 08:42:00,40.7,24.0,30.58,ESE,106,0.0,2.0,51,0.00,,,0.00,264,LWC V2.00 B727,2013-10-22 14:42:00,
2013-10-22 08:47:00,41.6,24.4,30.57,ESE,106,1.0,2.0,50,0.00,,,0.00,281,LWC V2.00 B727,2013-10-22 14:47:00,
2013-10-22 08:52:00,42.7,26.3,30.58,ESE,106,0.0,0.0,52,0.00,,,0.00,299,LWC V2.00 B727,2013-10-22 14:52:00,
2013-10-22 08:57:00,43.5,27.1,30.58,ESE,106,0.0,0.0,52,0.00,,,0.00,316,LWC V2.00 B727,2013-10-22 14:57:00,
2013-10-22 09:02:00,44.3,25.9,30.58,ESE,106,0.0,0.0,48,0.00,,,0.00,334,LWC V2.00 B727,2013-10-22 15:02:00,
2013-10-22 09:07:00,45.2,25.7,30.58,ESE,106,0.0,0.0,46,0.00,,,0.00,350,LWC V2.00 B727,2013-10-22 15:07:00,
2013-10-22 09:12:00,45.9,24.1,30.58,ESE,106,0.0,1.0,42,0.00,,,0.00,366,LWC V2.00 B727,2013-10-22 15:12:00,
2013-10-22 09:17:00,46.8,25.5,30.58,ESE,105,0.0,1.0,43,0.00,,,0.00,380,LWC V2.00 B727,2013-10-22 15:17:00,
2013-10-22 09:22:00,47.4,24.9,30.58,ESE,104,1.0,2.0,41,0.00,,,0.00,396,LWC V2.00 B727,2013-10-22 15:22:00,
2013-10-22 09:27:00,48.0,26.0,30.58,ESE,103,0.0,0.0,42,0.00,,,0.00,410,LWC V2.00 B727,2013-10-22 15:27:00,
2013-10-22 09:32:00,48.5,25.9,30.58,ESE,105,0.0,1.0,41,0.00,,,0.00,425,LWC V2.00 B727,2013-10-22 15:32:00,
2013-10-22 09:37:00,49.0,25.7,30.58,East,98,0.0,1.0,40,0.00,,,0.00,441,LWC V2.00 B727,2013-10-22 15:37:00,
2013-10-22 09:42:00,49.6,26.9,30.57,East,98,0.0,1.0,41,0.00,,,0.00,457,LWC V2.00 B727,2013-10-22 15:42:00,
2013-10-22 09:47:00,50.1,26.1,30.57,East,98,1.0,1.0,39,0.00,,,0.00,471,LWC V2.00 B727,2013-10-22 15:47:00,
2013-10-22 09:52:00,50.6,26.6,30.57,East,98,0.0,1.0,39,0.00,,,0.00,483,LWC V2.00 B727,2013-10-22 15:52:00,
2013-10-22 09:57:00,51.4,28.5,30.57,East,94,0.0,2.0,41,0.00,,,0.00,497,LWC V2.00 B727,2013-10-22 15:57:00,
2013-10-22 10:02:00,52.1,27.9,30.57,NE,52,2.0,5.0,39,0.00,,,0.00,512,LWC V2.00 B727,2013-10-22 16:02:00,
2013-10-22 10:07:00,52.6,27.7,30.57,NE,48,1.0,2.0,38,0.00,,,0.00,526,LWC V2.00 B727,2013-10-22 16:07:00,
2013-10-22 10:12:00,52.9,27.3,30.57,NE,46,0.0,3.0,37,0.00,,,0.00,540,LWC V2.00 B727,2013-10-22 16:12:00,
2013-10-22 10:17:00,53.3,27.0,30.57,NNE,13,0.0,4.0,36,0.00,,,0.00,552,LWC V2.00 B727,2013-10-22 16:17:00,
2013-10-22 10:22:00,53.6,26.6,30.57,WNW,290,2.0,6.0,35,0.00,,,0.00,564,LWC V2.00 B727,2013-10-22 16:22:00,
2013-10-22 10:27:00,53.9,26.9,30.56,WNW,286,5.0,7.0,35,0.00,,,0.00,575,LWC V2.00 B727,2013-10-22 16:27:00,
2013-10-22 10:32:00,54.1,28.4,30.56,WNW,288,0.0,4.0,37,0.00,,,0.00,585,LWC V2.00 B727,2013-10-22 16:32:00,
2013-10-22 10:37:00,54.2,28.5,30.56,WSW,252,1.0,6.0,37,0.00,,,0.00,598,LWC V2.00 B727,2013-10-22 16:37:00,
2013-10-22 10:42:00,54.5,29.4,30.56,WSW,244,2.0,3.0,38,0.00,,,0.00,606,LWC V2.00 B727,2013-10-22 16:42:00,
2013-10-22 10:47:00,54.9,29.1,30.56,WSW,237,3.0,4.0,37,0.00,,,0.00,621,LWC V2.00 B727,2013-10-22 16:47:00,
2013-10-22 10:52:00,55.2,28.7,30.56,West,260,0.0,4.0,36,0.00,,,0.00,629,LWC V2.00 B727,2013-10-22 16:52:00,
2013-10-22 10:57:00,55.4,27.5,30.56,WNW,287,6.0,6.0,34,0.00,,,0.00,640,LWC V2.00 B727,2013-10-22 16:57:00,
2013-10-22 11:02:00,55.3,28.1,30.56,WNW,300,5.0,8.0,35,0.00,,,0.00,650,LWC V2.00 B727,2013-10-22 17:02:00,
2013-10-22 11:07:00,55.1,26.5,30.56,WNW,287,5.0,6.0,33,0.00,,,0.00,657,LWC V2.00 B727,2013-10-22 17:07:00,
2013-10-22 11:12:00,55.2,28.0,30.56,West,264,1.0,6.0,35,0.00,,,0.00,668,LWC V2.00 B727,2013-10-22 17:12:00,
2013-10-22 11:17:00,55.5,26.9,30.56,WNW,292,3.0,9.0,33,0.00,,,0.00,675,LWC V2.00 B727,2013-10-22 17:17:00,
2013-10-22 11:22:00,55.6,28.4,30.56,West,262,1.0,3.0,35,0.00,,,0.00,686,LWC V2.00 B727,2013-10-22 17:22:00,
2013-10-22 11:27:00,56.0,28.0,30.56,WNW,297,3.0,5.0,34,0.00,,,0.00,691,LWC V2.00 B727,2013-10-22 17:27:00,
2013-10-22 11:32:00,56.0,28.0,30.55,WNW,285,3.0,9.0,34,0.00,,,0.00,698,LWC V2.00 B727,2013-10-22 17:32:00,
2013-10-22 11:37:00,55.8,25.6,30.55,WNW,291,3.0,8.0,31,0.00,,,0.00,705,LWC V2.00 B727,2013-10-22 17:37:00,
2013-10-22 11:42:00,55.8,27.1,30.55,WSW,252,2.0,3.0,33,0.00,,,0.00,712,LWC V2.00 B727,2013-10-22 17:42:00,
2013-10-22 11:47:00,56.4,26.1,30.55,WNW,283,8.0,8.0,31,0.00,,,0.00,717,LWC V2.00 B727,2013-10-22 17:47:00,
2013-10-22 11:52:00,56.5,26.2,30.55,WNW,285,3.0,6.0,31,0.00,,,0.00,722,LWC V2.00 B727,2013-10-22 17:52:00,
2013-10-22 11:57:00,56.4,24.5,30.55,West,275,1.0,8.0,29,0.00,,,0.00,729,LWC V2.00 B727,2013-10-22 17:57:00,
2013-10-22 12:02:00,56.4,27.7,30.55,WSW,253,1.0,4.0,33,0.00,,,0.00,733,LWC V2.00 B727,2013-10-22 18:02:00,
2013-10-22 12:07:00,57.0,25.9,30.54,West,281,7.0,9.0,30,0.00,,,0.00,737,LWC V2.00 B727,2013-10-22 18:07:00,
2013-10-22 12:12:00,57.0,27.4,30.54,WSW,247,5.0,5.0,32,0.00,,,0.00,740,LWC V2.00 B727,2013-10-22 18:12:00,
2013-10-22 12:17:00,57.3,25.3,30.54,West,280,3.0,4.0,29,0.00,,,0.00,745,LWC V2.00 B727,2013-10-22 18:17:00,
2013-10-22 12:22:00,57.3,26.1,30.53,WSW,249,3.0,6.0,30,0.00,,,0.00,749,LWC V2.00 B727,2013-10-22 18:22:00,
2013-10-22 12:27:00,57.5,24.7,30.54,WNW,291,2.0,8.0,28,0.00,,,0.00,751,LWC V2.00 B727,2013-10-22 18:27:00,
2013-10-22 12:32:00,57.4,25.4,30.53,WNW,290,5.0,5.0,29,0.00,,,0.00,752,LWC V2.00 B727,2013-10-22 18:32:00,
2013-10-22 12:37:00,57.3,24.5,30.53,WNW,287,3.0,8.0,28,0.00,,,0.00,754,LWC V2.00 B727,2013-10-22 18:37:00,
2013-10-22 12:42:00,57.5,26.3,30.53,WSW,247,0.0,4.0,30,0.00,,,0.00,754,LWC V2.00 B727,2013-10-22 18:42:00,
2013-10-22 12:47:00,57.9,25.8,30.53,West,277,8.0,8.0,29,0.00,,,0.00,756,LWC V2.00 B727,2013-10-22 18:47:00,
2013-10-22 12:52:00,58.0,27.5,30.53,NW,310,5.0,5.0,31,0.00,,,0.00,754,LWC V2.00 B727,2013-10-22 18:52:00,
2013-10-22 12:57:00,58.1,25.2,30.52,WNW,284,1.0,5.0,28,0.00,,,0.00,756,LWC V2.00 B727,2013-10-22 18:57:00,
2013-10-22 13:02:00,58.1,26.0,30.52,WSW,247,3.0,4.0,29,0.00,,,0.00,754,LWC V2.00 B727,2013-10-22 19:02:00,
2013-10-22 13:07:00,58.5,26.4,30.52,WNW,301,4.0,8.0,29,0.00,,,0.00,752,LWC V2.00 B727,2013-10-22 19:07:00,
2013-10-22 13:12:00,58.6,25.6,30.52,West,278,6.0,8.0,28,0.00,,,0.00,752,LWC V2.00 B727,2013-10-22 19:12:00,
2013-10-22 13:17:00,58.2,24.4,30.51,WNW,284,4.0,8.0,27,0.00,,,0.00,749,LWC V2.00 B727,2013-10-22 19:17:00,
2013-10-22 13:22:00,58.1,26.8,30.51,WNW,301,5.0,5.0,30,0.00,,,0.00,744,LWC V2.00 B727,2013-10-22 19:22:00,
2013-10-22 13:27:00,58.0,25.9,30.51,WNW,295,0.0,6.0,29,0.00,,,0.00,738,LWC V2.00 B727,2013-10-22 19:27:00,
2013-10-22 13:32:00,57.9,26.7,30.50,West,260,0.0,4.0,30,0.00,,,0.00,737,LWC V2.00 B727,2013-10-22 19:32:00,
2013-10-22 13:37:00,58.2,28.5,30.50,SSW,211,2.0,4.0,32,0.00,,,0.00,731,LWC V2.00 B727,2013-10-22 19:37:00,
2013-10-22 13:42:00,58.8,29.0,30.50,WSW,239,2.0,6.0,32,0.00,,,0.00,729,LWC V2.00 B727,2013-10-22 19:42:00,
2013-10-22 13:47:00,59.2,27.8,30.50,SW,214,6.0,6.0,30,0.00,,,0.00,724,LWC V2.00 B727,2013-10-22 19:47:00,
2013-10-22 13:52:00,59.3,27.1,30.50,West,271,5.0,9.0,29,0.00,,,0.00,717,LWC V2.00 B727,2013-10-22 19:52:00,
2013-10-22 13:57:00,59.0,26.8,30.49,NW,319,2.0,6.0,29,0.00,,,0.00,712,LWC V2.00 B727,2013-10-22 19:57:00,
2013-10-22 14:02:00,59.0,26.8,30.49,SW,215,3.0,8.0,29,0.00,,,0.00,705,LWC V2.00 B727,2013-10-22 20:02:00,
2013-10-22 14:07:00,59.0,26.8,30.49,WNW,292,3.0,4.0,29,0.00,,,0.00,698,LWC V2.00 B727,2013-10-22 20:07:00,
2013-10-22 14:12:00,59.0,25.9,30.49,WSW,242,0.0,2.0,28,0.00,,,0.00,691,LWC V2.00 B727,2013-10-22 20:12:00,
2013-10-22 14:17:00,59.0,26.8,30.49,NNW,329,4.0,7.0,29,0.00,,,0.00,684,LWC V2.00 B727,2013-10-22 20:17:00,
2013-10-22 14:22:00,59.5,27.2,30.49,South,184,5.0,8.0,29,0.00,,,0.00,677,LWC V2.00 B727,2013-10-22 20:22:00,
2013-10-22 14:27:00,59.5,26.4,30.48,West,274,3.0,6.0,28,0.00,,,0.00,671,LWC V2.00 B727,2013-10-22 20:27:00,
2013-10-22 14:32:00,59.7,26.5,30.48,WNW,298,5.0,6.0,28,0.00,,,0.00,664,LWC V2.00 B727,2013-10-22 20:32:00,
2013-10-22 14:37:00,60.0,27.7,30.48,SW,234,0.0,2.0,29,0.00,,,0.00,656,LWC V2.00 B727,2013-10-22 20:37:00,
2013-10-22 14:42:00,60.5,28.9,30.48,WNW,292,6.0,6.0,30,0.00,,,0.00,645,LWC V2.00 B727,2013-10-22 20:42:00,
2013-10-22 14:47:00,60.4,25.4,30.48,WNW,290,2.0,8.0,26,0.00,,,0.00,633,LWC V2.00 B727,2013-10-22 20:47:00,
2013-10-22 14:52:00,60.0,25.0,30.48,West,268,0.0,2.0,26,0.00,,,0.00,622,LWC V2.00 B727,2013-10-22 20:52:00,
2013-10-22 14:57:00,59.8,24.9,30.48,WNW,284,5.0,5.0,26,0.00,,,0.00,608,LWC V2.00 B727,2013-10-22 20:57:00,
2013-10-22 15:02:00,60.0,26.8,30.47,SW,230,0.0,3.0,28,0.00,,,0.00,599,LWC V2.00 B727,2013-10-22 21:02:00,
2013-10-22 15:07:00,60.1,26.9,30.48,West,270,3.0,10.0,28,0.00,,,0.00,584,LWC V2.00 B727,2013-10-22 21:07:00,
2013-10-22 15:12:00,60.0,26.8,30.47,West,268,4.0,7.0,28,0.00,,,0.00,573,LWC V2.00 B727,2013-10-22 21:12:00,
2013-10-22 15:17:00,60.1,26.0,30.47,SW,229,4.0,8.0,27,0.00,,,0.00,557,LWC V2.00 B727,2013-10-22 21:17:00,
2013-10-22 15:22:00,60.2,26.1,30.47,WNW,291,1.0,6.0,27,0.00,,,0.00,547,LWC V2.00 B727,2013-10-22 21:22:00,
2013-10-22 15:27:00,60.3,27.1,30.47,SSW,207,3.0,6.0,28,0.00,,,0.00,531,LWC V2.00 B727,2013-10-22 21:27:00,
2013-10-22 15:32:00,60.4,26.3,30.47,WSW,240,0.0,6.0,27,0.00,,,0.00,519,LWC V2.00 B727,2013-10-22 21:32:00,
2013-10-22 15:37:00,60.5,24.5,30.47,WNW,291,3.0,5.0,25,0.00,,,0.00,506,LWC V2.00 B727,2013-10-22 21:37:00,
2013-10-22 15:42:00,60.4,25.4,30.47,West,261,4.0,9.0,26,0.00,,,0.00,494,LWC V2.00 B727,2013-10-22 21:42:00,
2013-10-22 15:47:00,60.2,25.2,30.46,WSW,237,0.0,3.0,26,0.00,,,0.00,480,LWC V2.00 B727,2013-10-22 21:47:00,
2013-10-22 15:52:00,60.1,26.0,30.47,West,265,8.0,11.0,27,0.00,,,0.00,466,LWC V2.00 B727,2013-10-22 21:52:00,
2013-10-22 15:57:00,59.8,23.9,30.47,WNW,291,6.0,6.0,25,0.00,,,0.00,448,LWC V2.00 B727,2013-10-22 21:57:00,
2013-10-22 16:02:00,59.6,23.7,30.46,West,280,1.0,4.0,25,0.00,,,0.00,434,LWC V2.00 B727,2013-10-22 22:02:00,
2013-10-22 16:07:00,59.8,23.9,30.46,West,273,0.0,6.0,25,0.00,,,0.00,418,LWC V2.00 B727,2013-10-22 22:07:00,
2013-10-22 16:12:00,59.8,24.9,30.46,WSW,240,0.0,3.0,26,0.00,,,0.00,404,LWC V2.00 B727,2013-10-22 22:12:00,
2013-10-22 16:17:00,60.0,24.1,30.46,West,279,3.0,5.0,25,0.00,,,0.00,388,LWC V2.00 B727,2013-10-22 22:17:00,
2013-10-22 16:22:00,60.0,24.1,30.46,SW,232,3.0,4.0,25,0.00,,,0.00,373,LWC V2.00 B727,2013-10-22 22:22:00,
2013-10-22 16:27:00,59.9,24.0,30.46,WSW,252,0.0,2.0,25,0.00,,,0.00,355,LWC V2.00 B727,2013-10-22 22:27:00,
2013-10-22 16:32:00,59.8,23.9,30.46,WSW,253,4.0,4.0,25,0.00,,,0.00,338,LWC V2.00 B727,2013-10-22 22:32:00,
2013-10-22 16:37:00,59.6,23.7,30.46,SW,232,0.0,4.0,25,0.00,,,0.00,320,LWC V2.00 B727,2013-10-22 22:37:00,
2013-10-22 16:42:00,59.6,23.7,30.45,WNW,295,4.0,4.0,25,0.00,,,0.00,299,LWC V2.00 B727,2013-10-22 22:42:00,
2013-10-22 16:47:00,59.4,22.6,30.45,West,278,0.0,5.0,24,0.00,,,0.00,279,LWC V2.00 B727,2013-10-22 22:47:00,
2013-10-22 16:52:00,59.1,22.4,30.45,West,259,5.0,5.0,24,0.00,,,0.00,257,LWC V2.00 B727,2013-10-22 22:52:00,
2013-10-22 16:57:00,59.0,22.3,30.45,West,263,0.0,3.0,24,0.00,,,0.00,234,LWC V2.00 B727,2013-10-22 22:57:00,
2013-10-22 17:02:00,59.0,22.3,30.45,WNW,291,0.0,6.0,24,0.00,,,0.00,209,LWC V2.00 B727,2013-10-22 23:02:00,
2013-10-22 17:07:00,58.7,21.0,30.45,West,274,0.0,2.0,23,0.00,,,0.00,186,LWC V2.00 B727,2013-10-22 23:07:00,
2013-10-22 17:12:00,58.6,20.9,30.45,WNW,291,2.0,6.0,23,0.00,,,0.00,163,LWC V2.00 B727,2013-10-22 23:12:00,
2013-10-22 17:17:00,58.3,21.7,30.45,WSW,248,0.0,0.0,24,0.00,,,0.00,139,LWC V2.00 B727,2013-10-22 23:17:00,
2013-10-22 17:22:00,58.0,21.4,30.45,WNW,286,0.0,2.0,24,0.00,,,0.00,121,LWC V2.00 B727,2013-10-22 23:22:00,
2013-10-22 17:27:00,57.7,22.1,30.45,WNW,285,0.0,2.0,25,0.00,,,0.00,98,LWC V2.00 B727,2013-10-22 23:27:00,
2013-10-22 17:32:00,57.3,20.8,30.45,WNW,284,0.0,2.0,24,0.00,,,0.00,79,LWC V2.00 B727,2013-10-22 23:32:00,
2013-10-22 17:37:00,57.0,21.5,30.45,WNW,285,0.0,0.0,25,0.00,,,0.00,62,LWC V2.00 B727,2013-10-22 23:37:00,
2013-10-22 17:42:00,56.5,22.0,30.45,WNW,284,0.0,1.0,26,0.00,,,0.00,44,LWC V2.00 B727,2013-10-22 23:42:00,
2013-10-22 17:47:00,56.5,22.0,30.45,WNW,285,0.0,2.0,26,0.00,,,0.00,30,LWC V2.00 B727,2013-10-22 23:47:00,
2013-10-22 17:52:00,56.6,22.1,30.45,WNW,284,0.0,0.0,26,0.00,,,0.00,21,LWC V2.00 B727,2013-10-22 23:52:00,
2013-10-22 17:57:00,56.5,22.0,30.45,WNW,284,0.0,0.0,26,0.00,,,0.00,14,LWC V2.00 B727,2013-10-22 23:57:00,
2013-10-22 18:02:00,56.4,22.8,30.45,WNW,284,0.0,0.0,27,0.00,,,0.00,9,LWC V2.00 B727,2013-10-23 00:02:00,
2013-10-22 18:07:00,55.9,24.1,30.45,WNW,284,0.0,1.0,29,0.00,,,0.00,9,LWC V2.00 B727,2013-10-23 00:07:00,
2013-10-22 18:12:00,55.3,24.4,30.45,WNW,284,0.0,0.0,30,0.00,,,0.00,7,LWC V2.00 B727,2013-10-23 00:12:00,
2013-10-22 18:17:00,54.5,24.5,30.45,WNW,284,2.0,2.0,31,0.00,,,0.00,0,LWC V2.00 B727,2013-10-23 00:17:00,
2013-10-22 18:22:00,53.2,24.1,30.45,South,183,3.0,4.0,32,0.00,,,0.00,0,LWC V2.00 B727,2013-10-23 00:22:00,
2013-10-22 18:27:00,51.7,24.2,30.45,South,170,3.0,4.0,34,0.00,,,0.00,0,LWC V2.00 B727,2013-10-23 00:27:00,
2013-10-22 18:32:00,50.0,24.1,30.45,SE,132,5.0,6.0,36,0.00,,,0.00,0,LWC V2.00 B727,2013-10-23 00:32:00,
2013-10-22 18:37:00,48.4,24.0,30.46,SE,134,5.0,5.0,38,0.00,,,0.00,0,LWC V2.00 B727,2013-10-23 00:37:00,
2013-10-22 18:42:00,47.0,23.3,30.46,SE,134,2.0,5.0,39,0.00,,,0.00,0,LWC V2.00 B727,2013-10-23 00:42:00,
2013-10-22 18:47:00,45.8,22.9,30.46,SE,134,4.0,5.0,40,0.00,,,0.00,0,LWC V2.00 B727,2013-10-23 00:47:00,
2013-10-22 18:52:00,44.8,23.1,30.46,SE,134,6.0,7.0,42,0.00,,,0.00,0,LWC V2.00 B727,2013-10-23 00:52:00,
2013-10-22 18:57:00,43.8,22.2,30.46,SE,139,6.0,7.0,42,0.00,,,0.00,0,LWC V2.00 B727,2013-10-23 00:57:00,
2013-10-22 19:02:00,43.2,22.8,30.47,SE,138,5.0,7.0,44,0.00,,,0.00,0,LWC V2.00 B727,2013-10-23 01:02:00,
2013-10-22 19:07:00,42.7,22.3,30.47,SE,141,5.0,5.0,44,0.00,,,0.00,0,LWC V2.00 B727,2013-10-23 01:07:00,
2013-10-22 19:12:00,42.2,22.4,30.47,SE,141,6.0,6.0,45,0.00,,,0.00,0,LWC V2.00 B727,2013-10-23 01:12:00,
2013-10-22 19:17:00,41.8,22.0,30.47,SE,142,4.0,6.0,45,0.00,,,0.00,0,LWC V2.00 B727,2013-10-23 01:17:00,
2013-10-22 19:22:00,41.5,21.8,30.47,SE,142,4.0,7.0,45,0.00,,,0.00,0,LWC V2.00 B727,2013-10-23 01:22:00,
2013-10-22 19:27:00,41.3,22.1,30.47,SE,142,5.0,8.0,46,0.00,,,0.00,0,LWC V2.00 B727,2013-10-23 01:27:00,
2013-10-22 19:32:00,41.1,21.9,30.47,SE,143,5.0,6.0,46,0.00,,,0.00,0,LWC V2.00 B727,2013-10-23 01:32:00,
2013-10-22 19:37:00,40.9,21.7,30.47,SE,142,6.0,6.0,46,0.00,,,0.00,0,LWC V2.00 B727,2013-10-23 01:37:00,
2013-10-22 19:42:00,40.7,21.5,30.47,SE,142,3.0,6.0,46,0.00,,,0.00,0,LWC V2.00 B727,2013-10-23 01:42:00,
2013-10-22 19:47:00,40.5,21.4,30.47,SE,142,4.0,5.0,46,0.00,,,0.00,0,LWC V2.00 B727,2013-10-23 01:47:00,
2013-10-22 19:52:00,40.4,21.3,30.47,SE,142,5.0,7.0,46,0.00,,,0.00,0,LWC V2.00 B727,2013-10-23 01:52:00,
2013-10-22 19:57:00,40.3,21.2,30.47,SE,142,3.0,6.0,46,0.00,,,0.00,0,LWC V2.00 B727,2013-10-23 01:57:00,
2013-10-22 20:02:00,40.1,21.5,30.47,SE,142,5.0,5.0,47,0.00,,,0.00,0,LWC V2.00 B727,2013-10-23 02:02:00,
2013-10-22 20:07:00,40.0,21.4,30.48,SE,142,5.0,6.0,47,0.00,,,0.00,0,LWC V2.00 B727,2013-10-23 02:07:00,
2013-10-22 20:12:00,39.8,21.2,30.47,SE,142,5.0,6.0,47,0.00,,,0.00,0,LWC V2.00 B727,2013-10-23 02:12:00,
2013-10-22 20:17:00,39.7,21.1,30.48,SE,142,3.0,5.0,47,0.00,,,0.00,0,LWC V2.00 B727,2013-10-23 02:17:00,
2013-10-22 20:22:00,39.5,21.5,30.47,SE,142,4.0,5.0,48,0.00,,,0.00,0,LWC V2.00 B727,2013-10-23 02:22:00,
2013-10-22 20:27:00,39.3,21.3,30.47,SE,142,4.0,5.0,48,0.00,,,0.00,0,LWC V2.00 B727,2013-10-23 02:27:00,
2013-10-22 20:32:00,39.1,21.1,30.48,SE,142,3.0,6.0,48,0.00,,,0.00,0,LWC V2.00 B727,2013-10-23 02:32:00,
2013-10-22 20:37:00,39.0,21.0,30.48,SE,143,4.0,6.0,48,0.00,,,0.00,0,LWC V2.00 B727,2013-10-23 02:37:00,
2013-10-22 20:42:00,38.9,20.9,30.48,SE,142,5.0,6.0,48,0.00,,,0.00,0,LWC V2.00 B727,2013-10-23 02:42:00,
2013-10-22 20:47:00,38.8,20.8,30.48,SE,143,3.0,5.0,48,0.00,,,0.00,0,LWC V2.00 B727,2013-10-23 02:47:00,
2013-10-22 20:52:00,38.7,20.7,30.48,SE,142,3.0,6.0,48,0.00,,,0.00,0,LWC V2.00 B727,2013-10-23 02:52:00,
2013-10-22 20:57:00,38.6,21.1,30.48,SE,143,3.0,6.0,49,0.00,,,0.00,0,LWC V2.00 B727,2013-10-23 02:57:00,
2013-10-22 21:02:00,38.6,20.6,30.48,SE,143,4.0,7.0,48,0.00,,,0.00,0,LWC V2.00 B727,2013-10-23 03:02:00,
2013-10-22 21:07:00,38.5,21.0,30.48,SE,143,2.0,7.0,49,0.00,,,0.00,0,LWC V2.00 B727,2013-10-23 03:07:00,
2013-10-22 21:12:00,38.3,20.8,30.48,SE,142,5.0,6.0,49,0.00,,,0.00,0,LWC V2.00 B727,2013-10-23 03:12:00,
2013-10-22 21:17:00,38.3,20.8,30.48,SE,142,3.0,6.0,49,0.00,,,0.00,0,LWC V2.00 B727,2013-10-23 03:17:00,
2013-10-22 21:22:00,38.4,20.9,30.49,SE,143,4.0,5.0,49,0.00,,,0.00,0,LWC V2.00 B727,2013-10-23 03:22:00,
2013-10-22 21:27:00,38.5,20.5,30.48,SE,142,3.0,7.0,48,0.00,,,0.00,0,LWC V2.00 B727,2013-10-23 03:27:00,
2013-10-22 21:32:00,38.6,21.1,30.49,SE,141,0.0,3.0,49,0.00,,,0.00,0,LWC V2.00 B727,2013-10-23 03:32:00,
2013-10-22 21:37:00,38.6,21.1,30.49,SE,142,0.0,1.0,49,0.00,,,0.00,0,LWC V2.00 B727,2013-10-23 03:37:00,
2013-10-22 21:42:00,38.4,21.4,30.49,SE,142,0.0,2.0,50,0.00,,,0.00,0,LWC V2.00 B727,2013-10-23 03:42:00,
2013-10-22 21:47:00,38.1,21.6,30.49,SE,142,2.0,2.0,51,0.00,,,0.00,0,LWC V2.00 B727,2013-10-23 03:47:00,
2013-10-22 21:52:00,37.7,21.2,30.49,SE,142,2.0,3.0,51,0.00,,,0.00,0,LWC V2.00 B727,2013-10-23 03:52:00,
2013-10-22 21:57:00,37.4,21.4,30.49,SE,142,0.0,1.0,52,0.00,,,0.00,0,LWC V2.00 B727,2013-10-23 03:57:00,
2013-10-22 22:01:00,37.3,21.3,30.49,SE,142,0.0,2.0,52,0.00,,,0.00,0,LWC V2.00 B727,2013-10-23 04:01:00,
2013-10-22 22:06:00,37.0,21.5,30.49,SE,142,1.0,2.0,53,0.00,,,0.00,0,LWC V2.00 B727,2013-10-23 04:06:00,
2013-10-22 22:11:00,36.8,20.8,30.49,SE,141,0.0,4.0,52,0.00,,,0.00,0,LWC V2.00 B727,2013-10-23 04:11:00,
2013-10-22 22:16:00,36.7,21.6,30.49,SE,142,0.0,2.0,54,0.00,,,0.00,0,LWC V2.00 B727,2013-10-23 04:16:00,
2013-10-22 22:21:00,36.5,21.5,30.49,SE,142,3.0,3.0,54,0.00,,,0.00,0,LWC V2.00 B727,2013-10-23 04:21:00,
2013-10-22 22:26:00,36.4,21.4,30.49,SE,141,2.0,4.0,54,0.00,,,0.00,0,LWC V2.00 B727,2013-10-23 04:26:00,
2013-10-22 22:31:00,36.3,21.3,30.49,SE,138,6.0,6.0,54,0.00,,,0.00,0,LWC V2.00 B727,2013-10-23 04:31:00,
2013-10-22 22:36:00,36.4,21.4,30.49,SE,140,3.0,7.0,54,0.00,,,0.00,0,LWC V2.00 B727,2013-10-23 04:36:00,
2013-10-22 22:41:00,36.6,21.5,30.49,SE,138,3.0,5.0,54,0.00,,,0.00,0,LWC V2.00 B727,2013-10-23 04:41:00,
2013-10-22 22:46:00,36.8,21.7,30.49,SE,140,4.0,5.0,54,0.00,,,0.00,0,LWC V2.00 B727,2013-10-23 04:46:00,
2013-10-22 22:51:00,36.8,21.7,30.49,SE,144,7.0,7.0,54,0.00,,,0.00,0,LWC V2.00 B727,2013-10-23 04:51:00,
2013-10-22 22:56:00,36.9,21.8,30.49,SE,144,6.0,7.0,54,0.00,,,0.00,0,LWC V2.00 B727,2013-10-23 04:56:00,
2013-10-22 23:01:00,36.9,21.8,30.49,SE,137,5.0,7.0,54,0.00,,,0.00,0,LWC V2.00 B727,2013-10-23 05:01:00,
2013-10-22 23:06:00,37.0,21.9,30.49,SE,138,4.0,7.0,54,0.00,,,0.00,0,LWC V2.00 B727,2013-10-23 05:06:00,
2013-10-22 23:11:00,36.9,21.8,30.49,SE,143,5.0,7.0,54,0.00,,,0.00,0,LWC V2.00 B727,2013-10-23 05:11:00,
2013-10-22 23:16:00,36.9,21.8,30.49,SE,140,4.0,6.0,54,0.00,,,0.00,0,LWC V2.00 B727,2013-10-23 05:16:00,
2013-10-22 23:21:00,36.9,21.8,30.49,SE,142,5.0,5.0,54,0.00,,,0.00,0,LWC V2.00 B727,2013-10-23 05:21:00,
2013-10-22 23:26:00,36.9,21.8,30.49,ESE,123,2.0,7.0,54,0.00,,,0.00,0,LWC V2.00 B727,2013-10-23 05:26:00,
2013-10-22 23:31:00,36.8,21.7,30.49,ESE,115,5.0,7.0,54,0.00,,,0.00,0,LWC V2.00 B727,2013-10-23 05:31:00,
2013-10-22 23:36:00,36.7,21.6,30.49,SE,132,4.0,6.0,54,0.00,,,0.00,0,LWC V2.00 B727,2013-10-23 05:36:00,
2013-10-22 23:41:00,36.6,22.0,30.49,SE,141,7.0,7.0,55,0.00,,,0.00,0,LWC V2.00 B727,2013-10-23 05:41:00,
2013-10-22 23:46:00,36.6,22.0,30.49,SE,144,4.0,7.0,55,0.00,,,0.00,0,LWC V2.00 B727,2013-10-23 05:46:00,
2013-10-22 23:51:00,36.6,22.0,30.49,SE,144,6.0,6.0,55,0.00,,,0.00,0,LWC V2.00 B727,2013-10-23 05:51:00,
2013-10-22 23:56:00,36.5,21.9,30.48,SE,144,5.0,7.0,55,0.00,,,0.00,0,LWC V2.00 B727,2013-10-23 05:56:00,